Weather Roundup
Issued by NWS

Home | Current Version | Previous Version | Graphics & Text | Print | Product List | Glossary Off
Versions: 1 2 3 4 5 6 7 8 9 10 11 12 13 14 15 16 17 18 19 20 21 22 23 24 25 26 27 28 29 30 31 32 33 34 35 36 37 38 39 40 41 42 43 44 45 46 47 48 49 50

000
NZUS93 KARX 251859
HRRWXR

CURRENT HOURLY OBSERVATIONS ACROSS
MUCH OF THE UPPER MISSISSIPPI VALLEY
NATIONAL WEATHER SERVICE LA CROSSE WI
200 PM CDT MON JUL 25 2016


...SOUTHEAST MINNESOTA...


CITY           SKY/WX    TMP DP  RH WIND       PRES   REMARKS
ROCHESTER      SUNNY     81  64  56 NW8       30.09F
ROCHESTER/MAYO FAIR      80  59  48 NW13      30.08F
WINONA         SUNNY     82  59  44 N7        30.05F
AUSTIN         SUNNY     81  61  50 N10       30.09S
ALBERT LEA     SUNNY     81  63  54 NW3       30.09F
DODGE CENTER   SUNNY     82  61  47 W9        30.10S
PRESTON        SUNNY     79  61  54 NW8       30.09S
OWATONNA       SUNNY     81  61  50 W5        30.09S
FARIBAULT      SUNNY     82  63  51 SW5       30.09S
$$

...ELSEWHERE IN MINNESOTA...


CITY           SKY/WX    TMP DP  RH WIND       PRES   REMARKS
MINNEAPOLIS    SUNNY     86  60  41 NW12      30.05F
INTNL FALLS    MOSUNNY   80  60  50 W9        29.98F
DULUTH         MOSUNNY   80  60  50 NW14G21   30.02S
RED WING       SUNNY     84  57  39 W5        30.04S
REDWOOD FALLS  SUNNY     84  59  42 W12       30.09S
MANKATO        SUNNY     81  61  50 NW10      30.09S
WORTHINGTON    SUNNY     82  63  52 SW6       30.13F
FAIRMONT       SUNNY     82  61  47 W3        30.10
$$

...SOUTHWEST WISCONSIN...


CITY           SKY/WX    TMP DP  RH WIND       PRES   REMARKS
LA CROSSE      SUNNY     84  63  49 NW12      30.03F
PRAIRIE DU CHI MOSUNNY   82  58  44 NW10      30.04S
BOSCOBEL       MOSUNNY   86  61  42 NW8       30.03F
LONE ROCK      NOT AVBL
PLATTEVILLE    SUNNY     81  64  57 NW9       30.06S
FORT MC COY    MOSUNNY   82  62  50 NW12G21   30.05S
MAUSTON-NEW LI PTCLDY    81  64  57 NW15      30.02F
VIROQUA        FAIR      80  62  53 NW9       30.07S
WIS DELLS      NOT AVBL
$$

...ELSEWHERE IN WISCONSIN...


CITY           SKY/WX    TMP DP  RH WIND       PRES   REMARKS
MILWAUKEE      PTSUNNY   89  63  41 NW9       29.98F HX  90
MADISON        PTSUNNY   84  63  49 VRB7      30.02S
GREEN BAY      MOSUNNY   82  67  60 NW13G21   29.97F
EAU CLAIRE     NOT AVBL
BLACK RVR FLS  FAIR      83  57  40 NW10      30.03F
MEDFORD        MOSUNNY   77  60  54 NW8       30.05S
WAUSAU         MOSUNNY   81  58  45 NW12G18   30.00F
WIS RAPIDS     MOSUNNY   83  59  44 NW13      30.03F
MARSHFIELD     MOSUNNY   81  61  50 NW13G21   30.04S
RICE LAKE      MOSUNNY   78  60  54 NW7       30.06F
$$

...NORTHEAST IOWA...


CITY           SKY/WX    TMP DP  RH WIND       PRES   REMARKS
WATERLOO       MOSUNNY   83  62  49 NW12      30.06S
DUBUQUE        MOSUNNY   81  64  56 NW9       30.06F
DECORAH        MOSUNNY   79  63  57 NW9       30.06F
MASON CITY     SUNNY     83  62  49 NW10      30.11S
CHARLES CITY   SUNNY     81  64  57 NW9G18    30.09F
OELWEIN        SUNNY     81  64  57 NW14G20   30.08F
$$

...ELSEWHERE IN IOWA...


CITY           SKY/WX    TMP DP  RH WIND       PRES   REMARKS
DES MOINES     MOSUNNY   87  60  40 N9        30.08F
IOWA CITY      SUNNY     85  62  46 NW13      30.06S
FORT DODGE     SUNNY     82  63  51 NW3       30.11F
MARSHALLTOWN   SUNNY     84  64  50 NW7       30.08F
CEDAR RAPIDS   SUNNY     83  65  54 N10       30.06S
$$

...NORTHERN ILLINOIS...


CITY           SKY/WX    TMP DP  RH WIND       PRES   REMARKS
CHICAGO-OHARE  MOSUNNY   86  60  41 W8        30.00S
CHICAGO-MIDWAY MOSUNNY   85  64  49 SE12      30.00F
MOLINE         MOSUNNY   87  64  46 MISG      30.03F
ROCKFORD       MOSUNNY   84  62  47 N8        30.03S
PEORIA         CLOUDY    87  70  56 NE3       30.02F HX  92
$$

NOTE: "FAIR" INDICATES FEW OR NO CLOUDS BELOW 12,000 FEET WITH NO
SIGNIFICANT WEATHER AND/OR OBSTRUCTIONS TO VISIBILITY. WIND
SPEEDS ARE IN MILES-PER-HOUR.




USA.gov is the U.S. government's official web portal to all federal, state and local government web resources and services.